Location: Unspecified
(0.0000°N, 0.0000°E)
Time: 03:50:36
(UTC+02:00)

Sapphire - Visible Passes

Search period start: 27 July 2016 00:00
Search period end: 06 August 2016 00:00
Orbit: 786 x 796 km, 67.1° (Epoch: 26 July)

Date Brightness Start Highest point End Pass type
(mag) Time Alt. Az. Time Alt. Az. Time Alt. Az.
27 Jul ? 07:10:51 10° N 07:15:55 42° ENE 07:20:58 10° SE visible
28 Jul ? 06:40:48 10° NNE 06:45:18 27° ENE 06:49:49 10° SE visible
29 Jul ? 06:11:09 10° NNE 06:14:42 18° ENE 06:18:14 10° ESE visible
30 Jul ? 05:42:37 10° NE 05:44:05 11° ENE 05:45:33 10° E visible
30 Jul ? 07:22:06 10° NW 07:27:14 46° WSW 07:32:23 10° S visible
31 Jul ? 06:51:17 10° NNW 06:56:39 72° WSW 07:02:01 10° SSE visible
01 Aug ? 06:20:41 10° NNW 06:26:03 74° ENE 06:31:26 10° SSE visible
02 Aug ? 05:50:19 10° N 05:55:28 47° ENE 06:00:37 10° SE visible
02 Aug ? 07:37:22 10° W 07:38:38 11° WSW 07:39:54 10° SW visible
03 Aug ? 05:29:16 11° SE 05:29:16 11° SE 05:29:33 10° SE visible
03 Aug ? 07:10:21 14° SW 07:10:21 14° SW 07:11:30 10° SSW visible
